Погода в Атаманово

Россия / Кемеровская область (Кузбасс)     53°46′51″N   87°23′42″E
темп.,
°C
ветер,
м/с
пор.,
м/с
влажн.,
%
обл.,
%
осадки,
мм/ч
давл.,
гПа
погр.,
м
5 марта, пт
пт501:00−10вюв228197 0.0 102121
04:00−11вюв228194 0.0 102021
07:00−12юв228285 0.0 101821
10:00−7юв2380100 0.0 1016102
13:00−2ююз51177100 0.0 1015686
16:00−2юз81489100 0.4 10161305
19:00−3юз61495100 1.6 1021888
22:00−6юз51486100 0.3 1023781
6 марта, сб
сб601:00−4ююз51683100 0.3 10231142
04:00−3юз81979100 0.0 10221501
07:00−5юз51681100 0.0 10231128
10:00−4юз61675100 0.0 10211208
13:00−2юз71470100 0.0 10191284
16:00−1юз61471100 0.0 10171377
19:00−3ю3979100 0.0 1016301
22:00−4ююз31482100 0.0 1016883
7 марта, вс
вс701:00−4ююз41385100 0.0 1016708
04:00−5ююз41387100 0.0 1015495
07:00−4юз61483100 0.0 1016829
10:00−4юз61192100 0.3 1017764
13:00−2зюз5894100 0.9 1019688
16:00−2зюз4787100 0.6 1021875
19:00−4юз3793100 0.9 1023248
22:00−8ююз229339 0.0 102421
8 марта, пн
пн801:00−9юв119559 0.0 102421
04:00−10вюв229767 0.0 102221
07:00−8вюв239483 0.0 102153
10:00−5вюв2391100 0.0 1017122
13:000юв2397100 0.0 1014258
16:00+1ю37100100 0.0 1012293
19:00−1ююв2394100 0.0 101237
22:00−2юз41584100 0.0 1013855
9 марта, вт
вт901:00−1юз51491100 0.0 1016782
04:00−2зюз51293100 0.3 1020598
07:00−10зюз378874 0.3 1024159
10:00−8юз478883 0.0 1026313
13:00−5юз467591 0.0 1027663
16:00−3юз357222 0.0 1026840
19:00−7ю128212 0.0 102521
22:00−8юв128654 0.0 102421